Volver al catálogo

COSMOS 2409

ActivoNavegaciónPO
NORAD 28420·PAYLOAD·🇷🇺 Russia

Lanzado Sep 23, 2004 desde Plesetsk Cosmodrome

Loading…

Próximos Pases (próximas 24 horas)

TLE

ActualizadoSource: Space-Track

Época: Sep 14, 2026, 22:46 UTC

1 28420U 04037B   26257.94907733  .00000085  00000-0  52559-3 0  9996
2 28420  82.4792 272.8944 0014840  83.9781 276.2991 12.45325004998726

Sigue COSMOS 2409 en tiempo real con AllMySat

Download on the App Store